Location: Recife
(8.0585°S, 34.8848°W)
Time: 10:56:08
(UTC-03:00)

Explorer 11/Cluster Stage 4 - Pass Details

Date: 23 April 2026
Orbit: 463 x 1174 km, 28.8° (Epoch: 20 May)

Event Time Altitude Azimuth Distance (km) Brightness Sun altitude
Rises 01:51:35 0° 233° (SW) 2,539 - -52.0°
Reaches altitude 10° 01:53:52 10° 227° (SW) 1,622 - -51.4°
Maximum altitude 01:57:22 47° 152° (SSE) 616 - -50.6°
Drops below altitude 10° 02:00:54 10° 77° (ENE) 1,626 - -49.7°
Sets 02:03:11 0° 70° (ENE) 2,547 - -49.1°
